User: anonymous   Login
Location: Unspecified
(0.0000°N, 0.0000°E)
Time: 16:58:56
(UTC+00:00)
Language:

CZ-11 DEB - Orbit

View from above orbital plane
View from above orbital plane
View from above satellite
View from above satellite

Ground track
Ground track

The orbit data is extracted from the following two-line orbital elements,

1 41846U 16066F   21336.84751744  .00000657  00000-0  10752-3 0  9993
2 41846  98.5905  36.4131 0366181  82.7711 281.4944 14.38262569265629
Epoch (UTC): 02 December 2021 20:20:25
Eccentricity: 0.0366181
inclination: 98.5905°
perigee height: 503 km
apogee height: 1026 km
right ascension of ascending node: 36.4131°
argument of perigee: 82.7711°
revolutions per day: 14.38262569
mean anomaly at epoch: 281.4944°
orbit number at epoch: 26562

The dashed part of the orbit path shows where the satellite is in the earth's shadow,  

DLR